• In Hungary
  • List of Countries
  • For 7 days
  • Water Temperature
  • Satellite Maps
  • Weather Map
  • News
  • Weather Widgets
  • user-avatar
    Login

    Hourly Weather Gelezniy Port

    Today, 14 November, Wednesday

    Time Temperature Precipitation Wind Pressure Humidity
    00:00 -5°C° 0 mm 5 mps 774 mmHg 60%
    01:00 -5°C° 0 mm 5 mps 773 mmHg 64%
    02:00 -5°C° 0 mm 5 mps 773 mmHg 68%
    03:00 -6°C° 0 mm 5 mps 772 mmHg 72%
    04:00 -6°C° 0 mm 5 mps 772 mmHg 77%
    05:00 -6°C° 0 mm 5 mps 772 mmHg 81%
    06:00 -4°C° 0 mm 4 mps 771 mmHg 81%
    07:00 -4°C° 0 mm 4 mps 771 mmHg 81%
    08:00 -3°C° 0 mm 4 mps 771 mmHg 81%
    09:00 -2°C° 0 mm 4 mps 771 mmHg 77%
    10:00 0°C° 0 mm 4 mps 771 mmHg 72%
    11:00 +3°C° 0 mm 3 mps 770 mmHg 68%
    12:00 +4°C° 0 mm 3 mps 770 mmHg 67%
    13:00 +4°C° 0 mm 3 mps 770 mmHg 67%
    14:00 +5°C° 0 mm 3 mps 769 mmHg 66%
    15:00 +5°C° 0 mm 3 mps 769 mmHg 69%
    16:00 +4°C° 0 mm 3 mps 769 mmHg 72%
    17:00 +4°C° 0 mm 4 mps 769 mmHg 75%
    18:00 +4°C° 0 mm 4 mps 769 mmHg 76%
    19:00 +4°C° 0 mm 4 mps 768 mmHg 77%
    20:00 +4°C° 0 mm 4 mps 768 mmHg 78%
    21:00 +3°C° 0 mm 4 mps 768 mmHg 79%
    22:00 +3°C° 0 mm 4 mps 768 mmHg 79%
    23:00 +3°C° 0 mm 4 mps 768 mmHg 80%

    Tomorrow, 15 November, Thursday

    Time Temperature Precipitation Wind Pressure Humidity
    00:00 +3°C° 0 mm 4 mps 768 mmHg 81%
    01:00 +3°C° 0 mm 4 mps 768 mmHg 82%
    02:00 +3°C° 0 mm 4 mps 767 mmHg 83%
    03:00 +3°C° 0 mm 4 mps 767 mmHg 83%
    04:00 +2°C° 0 mm 5 mps 767 mmHg 84%
    05:00 +2°C° 0 mm 5 mps 767 mmHg 84%
    06:00 +2°C° 0 mm 5 mps 767 mmHg 83%
    07:00 +2°C° 0 mm 5 mps 767 mmHg 82%
    08:00 +2°C° 0 mm 6 mps 768 mmHg 81%
    09:00 +3°C° 0 mm 6 mps 768 mmHg 76%
    10:00 +4°C° 0 mm 6 mps 768 mmHg 72%
    11:00 +4°C° 0 mm 6 mps 768 mmHg 67%
    12:00 +5°C° 0 mm 6 mps 768 mmHg 65%
    13:00 +5°C° 0 mm 6 mps 768 mmHg 63%
    14:00 +5°C° 0 mm 6 mps 768 mmHg 61%
    15:00 +5°C° 0 mm 6 mps 768 mmHg 62%
    16:00 +4°C° 0 mm 6 mps 768 mmHg 63%
    17:00 +4°C° 0 mm 7 mps 768 mmHg 64%
    18:00 +3°C° 0 mm 7 mps 769 mmHg 65%
    19:00 +2°C° 0 mm 8 mps 769 mmHg 65%
    20:00 +2°C° 0 mm 8 mps 769 mmHg 66%
    21:00 +1°C° 0 mm 8 mps 769 mmHg 68%
    22:00 +1°C° 0 mm 8 mps 769 mmHg 70%
    23:00 0°C° 0 mm 8 mps 769 mmHg 71%

    Day after tomorrow, 16 November, Friday

    Time Temperature Precipitation Wind Pressure Humidity
    00:00 0°C° 0 mm 8 mps 769 mmHg 72%
    01:00 0°C° 0 mm 8 mps 770 mmHg 73%
    02:00 -1°C° 0 mm 8 mps 770 mmHg 74%
    03:00 -1°C° 0 mm 9 mps 770 mmHg 75%
    04:00 -1°C° 0 mm 9 mps 770 mmHg 77%
    05:00 -3°C° 0 mm 9 mps 770 mmHg 78%
    06:00 -3°C° 0 mm 10 mps 770 mmHg 76%
    07:00 -2°C° 0 mm 10 mps 770 mmHg 75%
    08:00 -2°C° 0 mm 10 mps 770 mmHg 73%
    09:00 0°C° 0 mm 10 mps 770 mmHg 69%
    10:00 +1°C° 0 mm 10 mps 770 mmHg 65%
    11:00 +2°C° 0 mm 10 mps 770 mmHg 61%
    12:00 +2°C° 0 mm 10 mps 770 mmHg 61%
    13:00 +2°C° 0 mm 10 mps 770 mmHg 60%
    14:00 +2°C° 0 mm 10 mps 770 mmHg 60%
    15:00 +2°C° 0 mm 10 mps 770 mmHg 60%
    16:00 +2°C° 0 mm 10 mps 770 mmHg 61%
    17:00 +1°C° 0 mm 10 mps 770 mmHg 61%
    18:00 +1°C° 0.1 mm 10 mps 770 mmHg 63%
    19:00 +1°C° 0.1 mm 10 mps 770 mmHg 64%
    20:00 +1°C° 0.1 mm 10 mps 770 mmHg 66%
    21:00 +1°C° 0.1 mm 10 mps 770 mmHg 67%
    22:00 +1°C° 0.1 mm 10 mps 770 mmHg 68%
    23:00 +1°C° 0.1 mm 10 mps 770 mmHg 69%

    17 November, Saturday

    Time Temperature Precipitation Wind Pressure Humidity
    00:00 +1°C° 0 mm 10 mps 770 mmHg 68%
    01:00 +1°C° 0 mm 10 mps 770 mmHg 68%
    02:00 0°C° 0 mm 10 mps 770 mmHg 67%
    03:00 0°C° 0 mm 10 mps 770 mmHg 66%
    04:00 0°C° 0 mm 10 mps 770 mmHg 65%
    05:00 -2°C° 0 mm 10 mps 770 mmHg 64%
    06:00 -2°C° 0 mm 10 mps 771 mmHg 62%
    07:00 -2°C° 0 mm 10 mps 771 mmHg 61%
    08:00 -3°C° 0 mm 9 mps 771 mmHg 60%
    09:00 -1°C° 0 mm 9 mps 771 mmHg 56%
    10:00 0°C° 0 mm 9 mps 771 mmHg 53%
    11:00 +1°C° 0 mm 8 mps 772 mmHg 49%
    12:00 +1°C° 0 mm 8 mps 771 mmHg 47%
    13:00 +2°C° 0 mm 8 mps 771 mmHg 45%
    14:00 +2°C° 0 mm 8 mps 771 mmHg 43%
    15:00 +1°C° 0 mm 8 mps 771 mmHg 44%
    16:00 +2°C° 0 mm 7 mps 771 mmHg 46%
    17:00 0°C° 0 mm 7 mps 772 mmHg 47%
    18:00 0°C° 0 mm 7 mps 772 mmHg 48%
    19:00 -1°C° 0 mm 7 mps 772 mmHg 48%
    20:00 -1°C° 0 mm 7 mps 772 mmHg 49%
    21:00 -1°C° 0 mm 7 mps 772 mmHg 48%
    22:00 -2°C° 0 mm 7 mps 772 mmHg 46%
    23:00 -2°C° 0 mm 6 mps 772 mmHg 45%

    18 November, Sunday

    Time Temperature Precipitation Wind Pressure Humidity
    00:00 -2°C° 0 mm 6 mps 771 mmHg 45%
    01:00 -3°C° 0 mm 6 mps 771 mmHg 45%
    02:00 -3°C° 0 mm 6 mps 771 mmHg 45%
    03:00 -3°C° 0 mm 6 mps 771 mmHg 46%
    04:00 -4°C° 0 mm 6 mps 771 mmHg 47%
    05:00 -4°C° 0 mm 6 mps 771 mmHg 48%
    06:00 -4°C° 0 mm 6 mps 770 mmHg 48%
    07:00 -4°C° 0 mm 6 mps 770 mmHg 48%
    08:00 -3°C° 0 mm 6 mps 770 mmHg 48%
    09:00 -1°C° 0 mm 5 mps 770 mmHg 43%
    10:00 0°C° 0 mm 4 mps 770 mmHg 39%
    11:00 +3°C° 0 mm 4 mps 770 mmHg 35%
    12:00 +4°C° 0 mm 4 mps 769 mmHg 34%
    13:00 +4°C° 0 mm 4 mps 768 mmHg 33%
    14:00 +5°C° 0 mm 4 mps 768 mmHg 31%
    15:00 +4°C° 0 mm 4 mps 767 mmHg 34%
    16:00 +3°C° 0 mm 4 mps 767 mmHg 37%
    17:00 +1°C° 0 mm 4 mps 767 mmHg 39%
    18:00 +1°C° 0 mm 4 mps 766 mmHg 39%
    19:00 +1°C° 0 mm 4 mps 766 mmHg 38%
    20:00 +1°C° 0 mm 4 mps 765 mmHg 37%
    21:00 +1°C° 0 mm 4 mps 765 mmHg 37%
    22:00 +1°C° 0 mm 4 mps 765 mmHg 37%
    23:00 +1°C° 0 mm 4 mps 764 mmHg 37%

    19 November, Monday

    Time Temperature Precipitation Wind Pressure Humidity
    00:00 +1°C° 0 mm 4 mps 764 mmHg 41%
    01:00 +1°C° 0 mm 4 mps 763 mmHg 44%
    02:00 +1°C° 0 mm 4 mps 763 mmHg 48%
    03:00 0°C° 0.1 mm 4 mps 763 mmHg 55%
    04:00 +1°C° 0.1 mm 3 mps 763 mmHg 62%
    05:00 +1°C° 0.1 mm 3 mps 762 mmHg 69%
    06:00 +1°C° 0.1 mm 3 mps 762 mmHg 72%
    07:00 +2°C° 0.1 mm 2 mps 762 mmHg 75%
    08:00 +2°C° 0.1 mm 2 mps 763 mmHg 78%
    09:00 +2°C° 0.1 mm 2 mps 763 mmHg 75%
    10:00 +3°C° 0.1 mm 2 mps 763 mmHg 73%
    11:00 +4°C° 0.1 mm 2 mps 763 mmHg 71%
    12:00 +4°C° 0 mm 2 mps 763 mmHg 69%
    13:00 +5°C° 0 mm 2 mps 762 mmHg 67%
    14:00 +4°C° 0 mm 3 mps 762 mmHg 65%
    15:00 +4°C° 0 mm 3 mps 762 mmHg 68%
    16:00 +3°C° 0 mm 3 mps 762 mmHg 72%
    17:00 +2°C° 0 mm 3 mps 763 mmHg 75%
    18:00 +1°C° 0 mm 4 mps 763 mmHg 77%
    19:00 0°C° 0 mm 4 mps 763 mmHg 79%
    20:00 0°C° 0 mm 5 mps 763 mmHg 81%
    21:00 0°C° 0 mm 5 mps 763 mmHg 81%
    22:00 -1°C° 0 mm 5 mps 763 mmHg 82%
    23:00 -1°C° 0 mm 5 mps 763 mmHg 82%
    Show more